[[{"header":{"parameterUnit":"m.s-1","parameterCategory":2,"la1":30.2991,"la2":30.254,"lo1":-89.0895,"lo2":-89.0444,"dy":0.0017,"dx":0.0017,"nx":28,"ny":28,"refTime":"2026-01-05T09:00:00:Z","depth":"0","parameterNumber":2,"parameterNumberName":"U-component_of_CURRENTS"},"data":[0,0,0,0,0,0,0,0,0,0,0,0,0,0,0,0,0,0,0,0,0,0,0,0,0,0,0,0,0,0,0,0,0,0,0,0,0,0,0,0,0,0,0,0,0,0,0,0,0,0,0,0,0,0,0,0,0,0,0.329,0.3289,0,0.3252,0.3251,0.3251,0.3242,0.3242,0.3243,0.3243,0.3226,0.3226,0.3225,0,0,0,0,0,0,0,0,0,0,0,0,0,0.3375,0.3373,0.329,0.3289,0.3289,0.3252,0.3251,0.325,0.3242,0.3242,0.3243,0.3243,0.3227,0.3226,0.3225,0,0,0,0,0,0,0,0,0,0,0,0,0,0.3336,0.3372,0.329,0.3281,0.328,0.3252,0.3251,0.325,0.3242,0.3242,0.3243,0.3243,0.3227,0.3226,0.3225,0.3207,0,0,0.3221,0.3221,0,0,0,0,0,0,0,0,0.3339,0.3333,0.3282,0.3281,0.328,0.3253,0.3275,0.3237,0.3242,0.3255,0.3243,0.3243,0.3237,0.3235,0.3225,0.3206,0.3205,0.3221,0.322,0.322,0.3219,0,0,0,0,0,0,0,0.3341,0.3335,0.3274,0.3282,0.3281,0.3286,0.328,0.3268,0.3243,0.3254,0.3253,0.3251,0.3237,0.3226,0.3225,0.3205,0.3221,0.322,0.3219,0.3219,0.3204,0.3204,0,0,0,0,0,0,0.3346,0.3337,0.3275,0.3273,0.3312,0.3284,0.3278,0.326,0.3243,0.3241,0.325,0.325,0.3228,0.3226,0.3224,0.3238,0.322,0.3219,0.3218,0.3204,0.3204,0.3205,0,0,0,0,0,0,0.3347,0.334,0.3276,0.3306,0.3298,0.3282,0.3262,0.3259,0.3252,0.324,0.3238,0.3246,0.3229,0.3226,0.3207,0.3236,0.3218,0.3217,0.3204,0.3204,0.3204,0.3242,0,0,0,0,0,0,0.335,0.334,0.3325,0.3305,0.3297,0.3262,0.3261,0.3258,0.325,0.325,0.3236,0.3235,0.3229,0.3209,0.3206,0.3234,0.3216,0.3203,0.3204,0.3204,0.324,0.3244,0.3246,0,0,0,0,0,0.3353,0.3325,0.3324,0.3316,0.3277,0.3262,0.3257,0.3248,0.3249,0.3243,0.323,0.3236,0.3212,0.3207,0.3204,0.3233,0.3203,0.3204,0.3204,0.3239,0.3243,0.3246,0,0,0,0,0,0,0.334,0.3321,0.3319,0.3283,0.3278,0.3261,0.325,0.3248,0.3232,0.3234,0.3223,0.322,0.3224,0.3212,0.3208,0.323,0.3215,0.3215,0.3243,0.3246,0.3249,0.3268,0.3215,0,0,0,0,0,0.3334,0.3311,0.3302,0.3271,0.3274,0.3265,0.3256,0.3255,0.3241,0.3235,0.3226,0.3221,0.3223,0.322,0.3215,0.3212,0.3237,0.3233,0.3236,0.3239,0.3252,0.3304,0.3314,0.3207,0.3207,0.3207,0,0,0.3315,0.3305,0.3288,0.3269,0.3265,0.3263,0.3261,0.3252,0.3253,0.3235,0.3228,0.3228,0.3223,0.3229,0.323,0.3223,0.3282,0.324,0.3242,0.3254,0.3306,0.3317,0.3326,0.3207,0.3207,0.3207,0,0,0.3281,0.3268,0.3249,0.3252,0.3253,0.3255,0.3256,0.3249,0.3253,0.3242,0.3243,0.3258,0.3238,0.3256,0.3259,0.3274,0.3298,0.3273,0.3304,0.3355,0.3365,0.3374,0.3424,0.3437,0.3274,0.3275,0.3275,0,0.3259,0.3236,0.3241,0.3239,0.3241,0.3255,0.3251,0.3256,0.3243,0.3254,0.3245,0.3259,0.326,0.3289,0.3301,0.3287,0.3313,0.3292,0.3362,0.3371,0.338,0.3429,0.3443,0.3276,0.3276,0.3276,0.3276,0,0.3227,0.3213,0.3207,0.3211,0.3219,0.3214,0.3238,0.3249,0.3258,0.3268,0.3296,0.3298,0.3311,0.3323,0.3316,0.3379,0.3378,0.3362,0.3357,0.3393,0.3442,0.3457,0.3279,0.3278,0.3278,0.3277,0,0,0.3159,0.3177,0.3174,0.3181,0.3207,0.3208,0.3234,0.326,0.3286,0.3295,0.3331,0.335,0.3366,0.3372,0.3378,0.3428,0.3518,0.3423,0.3425,0.3483,0.3635,0.3529,0.3534,0.3514,0.3516,0.3518,0.3648,0,0.313,0.3119,0.3143,0.3142,0.3144,0.3188,0.3211,0.3247,0.3282,0.3323,0.3363,0.3392,0.3379,0.3399,0.3446,0.3515,0.3556,0.3485,0.3584,0.3587,0.3496,0.3546,0.3295,0.3379,0.3662,0.3664,0.3666,0,0.3094,0.3095,0.3087,0.3121,0.3128,0.3137,0.3198,0.3222,0.3302,0.3334,0.3386,0.3419,0.3506,0.3479,0.3611,0.3567,0.3599,0.3642,0.3647,0.3546,0.3506,0.3387,0.3394,0.3281,0.3687,0.3686,0.3684,0,0.3049,0.3057,0.305,0.3058,0.31,0.3117,0.3145,0.3221,0.3269,0.3351,0.3409,0.3485,0.3554,0.3615,0.3699,0.3666,0.3845,0.3805,0.3735,0.3728,0.3532,0.3503,0.3446,0.3877,0.3877,0.3876,0.3876,0,0.3007,0.3,0.3026,0.3022,0.3037,0.3081,0.3128,0.3171,0.3267,0.3341,0.3408,0.3488,0.3594,0.3701,0.3741,0.3796,0.3876,0.3758,0.3758,0.3535,0.3506,0.3411,0.3387,0.3881,0.388,0.3879,0.3878,0,0.2957,0.2968,0.2969,0.3003,0.3015,0.3028,0.3118,0.3164,0.3252,0.336,0.3395,0.354,0.367,0.376,0.3893,0.3852,0.3776,0.3894,0.3627,0.3589,0.3363,0.3351,0.3228,0.3135,0.3832,0.383,0.3829,0,0.293,0.292,0.295,0.2963,0.2975,0.3013,0.3052,0.314,0.3206,0.3388,0.3441,0.36,0.3678,0.3826,0.3786,0.3817,0.3731,0.3594,0.3463,0.3328,0.3317,0.3215,0.314,0.3234,0.3228,0.3223,0.3218,0,0.2893,0.2902,0.2912,0.2939,0.2966,0.3001,0.3061,0.3113,0.3239,0.3329,0.3453,0.3528,0.3621,0.3531,0.3554,0.3534,0.3361,0.3486,0.3413,0.2899,0.272,0.2635,0.3193,0.3172,0.3177,0.318,0.3183,0.3185,0.2878,0.2881,0.2907,0.2921,0.2951,0.298,0.2985,0.3065,0.3147,0.3224,0.3367,0.3358,0.3292,0.3262,0.3239,0.2971,0.3055,0.2815,0.2836,0.2767,0.2575,0.3034,0.2962,0.2965,0.2968,0.297,0.2972,0,0.287,0.2877,0.2893,0.2909,0.2907,0.2937,0.2984,0.2965,0.3004,0.3047,0.3098,0.2936,0.2802,0.2725,0.2475,0.2323,0.2216,0.2258,0.205,0.2031,0.2482,0.2349,0.2057,0.2057,0.2057,0.2057,0.2057,0.2057,0.2871,0.2876,0.2872,0.2856,0.2857,0.2812,0.2809,0.2776,0.276,0.2632,0.2479,0.2446,0.2353,0.2151,0.1904,0.1853,0.173,0.1591,0.1709,0.2006,0.2059,0.2109,0.1976,0.161,0.161,0.1081,0.1077,0.1074]},{"header":{"parameterUnit":"m.s-1","parameterCategory":2,"la1":30.2991,"la2":30.254,"lo1":-89.0895,"lo2":-89.0444,"dy":0.0017,"dx":0.0017,"nx":28,"ny":28,"refTime":"2026-01-05T09:00:00:Z","depth":"0","parameterNumber":3,"parameterNumberName":"V-component_of_CURRENTS"},"data":[0,0,0,0,0,0,0,0,0,0,0,0,0,0,0,0,0,0,0,0,0,0,0,0,0,0,0,0,0,0,0,0,0,0,0,0,0,0,0,0,0,0,0,0,0,0,0,0,0,0,0,0,0,0,0,0,0,0,-0.0202,-0.0202,0,-0.0191,-0.0192,-0.0192,-0.0206,-0.0206,-0.0206,-0.0207,-0.0292,-0.0294,-0.0296,0,0,0,0,0,0,0,0,0,0,0,0,0,-0.0273,-0.0271,-0.0202,-0.0202,-0.0201,-0.0191,-0.0192,-0.0192,-0.0206,-0.0206,-0.0207,-0.0207,-0.0291,-0.0294,-0.0297,0,0,0,0,0,0,0,0,0,0,0,0,0,-0.0254,-0.0271,-0.0202,-0.0204,-0.0204,-0.0191,-0.0192,-0.0192,-0.0206,-0.0206,-0.0207,-0.0207,-0.0291,-0.0294,-0.0297,-0.0313,0,0,-0.0307,-0.0308,0,0,0,0,0,0,0,0,-0.0255,-0.0252,-0.0204,-0.0204,-0.0203,-0.0196,-0.0247,-0.0236,-0.0206,-0.021,-0.0207,-0.0207,-0.0266,-0.0271,-0.0274,-0.0317,-0.0321,-0.0307,-0.0309,-0.0311,-0.0311,0,0,0,0,0,0,0,-0.0256,-0.0253,-0.0202,-0.0204,-0.0203,-0.0217,-0.0215,-0.0245,-0.0242,-0.021,-0.021,-0.0201,-0.0267,-0.0271,-0.0276,-0.0322,-0.0307,-0.031,-0.0312,-0.0313,-0.0392,-0.0392,0,0,0,0,0,0,-0.0246,-0.0253,-0.0203,-0.0202,-0.0225,-0.0216,-0.0213,-0.0202,-0.024,-0.0244,-0.0201,-0.0202,-0.0265,-0.0272,-0.0279,-0.0291,-0.0311,-0.0314,-0.0315,-0.0392,-0.0392,-0.0392,0,0,0,0,0,0,-0.0248,-0.0242,-0.0203,-0.0224,-0.022,-0.0213,-0.0201,-0.0202,-0.0203,-0.0231,-0.0238,-0.0201,-0.0265,-0.0275,-0.0293,-0.0295,-0.0315,-0.0318,-0.0391,-0.0392,-0.0392,-0.0321,0,0,0,0,0,0,-0.025,-0.0242,-0.0231,-0.0223,-0.0218,-0.0191,-0.0201,-0.0201,-0.0195,-0.0196,-0.0234,-0.0242,-0.0266,-0.0288,-0.0296,-0.03,-0.0321,-0.0391,-0.0392,-0.0392,-0.0323,-0.0319,-0.0315,0,0,0,0,0,-0.0252,-0.0231,-0.0231,-0.0224,-0.0202,-0.019,-0.019,-0.0189,-0.0195,-0.0193,-0.0211,-0.024,-0.0296,-0.029,-0.03,-0.0304,-0.0391,-0.0391,-0.0392,-0.0325,-0.032,-0.0315,0,0,0,0,0,0,-0.0249,-0.023,-0.0229,-0.0202,-0.0195,-0.0191,-0.0183,-0.0186,-0.0198,-0.0201,-0.0234,-0.0243,-0.0262,-0.0294,-0.0286,-0.033,-0.0353,-0.0355,-0.0298,-0.0294,-0.029,-0.0255,-0.0323,0,0,0,0,0,-0.0243,-0.0225,-0.0214,-0.0191,-0.0188,-0.0188,-0.0182,-0.0182,-0.0188,-0.0193,-0.0217,-0.0247,-0.0272,-0.0289,-0.0316,-0.0337,-0.0324,-0.0351,-0.0347,-0.0343,-0.0323,-0.029,-0.028,-0.0393,-0.0393,-0.0393,0,0,-0.0228,-0.0219,-0.0205,-0.0189,-0.0186,-0.0166,-0.0186,-0.0174,-0.0157,-0.0203,-0.0197,-0.0231,-0.0273,-0.029,-0.0303,-0.0317,-0.0305,-0.0344,-0.034,-0.0321,-0.0289,-0.0278,-0.0267,-0.0393,-0.0393,-0.0393,0,0,-0.0194,-0.0191,-0.0166,-0.0161,-0.0152,-0.015,-0.0145,-0.0143,-0.0146,-0.0147,-0.0173,-0.0197,-0.0243,-0.0261,-0.0279,-0.0271,-0.028,-0.0299,-0.0253,-0.0222,-0.0211,-0.0202,-0.0163,-0.015,-0.0302,-0.0301,-0.0301,0,-0.0176,-0.0145,-0.0157,-0.0137,-0.0121,-0.0139,-0.0108,-0.0112,-0.0115,-0.0107,-0.0138,-0.0174,-0.0223,-0.0221,-0.0229,-0.0259,-0.0238,-0.0265,-0.0212,-0.0202,-0.0194,-0.0156,-0.0143,-0.0298,-0.0298,-0.0299,-0.0299,0,-0.0126,-0.0103,-0.009,-0.0067,-0.0057,-0.0035,-0.0037,-0.0034,-0.0046,-0.0045,-0.0051,-0.0105,-0.0124,-0.0157,-0.0196,-0.017,-0.0172,-0.0202,-0.0213,-0.0177,-0.0141,-0.0129,-0.0293,-0.0294,-0.0295,-0.0296,0,0,-0.0077,-0.0055,-0.005,-0.0025,-0.0017,0.0003,0.0022,0.0046,0.0076,0.0044,0.0082,0.0014,-0.0015,-0.0038,-0.0091,-0.0082,-0.0024,-0.0119,-0.0119,-0.006,0.0064,0.0067,0.0081,-0.0037,-0.0035,-0.0033,0.0069,0,-0.0029,0.0027,0.0021,0.008,0.0112,0.0099,0.0125,0.0139,0.0135,0.0161,0.0114,0.0121,0.0031,0.0021,0.0015,-0.0013,0.0011,-0.0047,0.0003,0.0005,0.002,0.0095,0.0094,0.0186,0.0081,0.0083,0.0084,0,0.0023,0.0056,0.0119,0.0164,0.0176,0.0203,0.0249,0.0272,0.029,0.0287,0.0282,0.025,0.0244,0.0165,0.0166,0.0136,0.0111,0.009,0.0093,0.0084,0.0031,0.0128,0.0212,0.0118,0.0103,0.0101,0.01,0,0.0071,0.0126,0.0182,0.0197,0.024,0.0264,0.0288,0.0313,0.0351,0.038,0.0418,0.0392,0.0407,0.0364,0.0295,0.0242,0.0321,0.0241,0.0233,0.0232,0.0236,0.0233,0.0254,0.0276,0.0276,0.0276,0.0275,0,0.0128,0.0172,0.0209,0.024,0.0314,0.032,0.0394,0.0411,0.0458,0.0541,0.0489,0.0561,0.0462,0.0477,0.0381,0.0365,0.0394,0.0277,0.0271,0.0258,0.0256,0.0175,0.0111,0.0279,0.0278,0.0278,0.0277,0,0.0169,0.0192,0.026,0.0314,0.0337,0.0389,0.0464,0.0521,0.0558,0.0668,0.0691,0.0722,0.0757,0.0666,0.0631,0.051,0.0426,0.0456,0.0451,0.0442,0.03,0.024,0.0283,0.0241,0.0455,0.0456,0.0457,0,0.0193,0.0232,0.0311,0.0361,0.0386,0.0461,0.0517,0.0564,0.0636,0.0784,0.0853,0.093,0.1014,0.0962,0.0782,0.0666,0.0537,0.0553,0.0433,0.0331,0.026,0.0211,0.0167,0.0469,0.047,0.0471,0.0471,0,0.0238,0.0263,0.0319,0.0419,0.0487,0.0576,0.0663,0.0737,0.0828,0.0957,0.1146,0.1239,0.1206,0.1113,0.0928,0.0806,0.0481,0.0561,0.0465,0.0297,0.0241,0.0183,0.0361,0.0477,0.0476,0.0476,0.0475,0.0475,0.0266,0.0313,0.0387,0.0487,0.0572,0.0686,0.0775,0.0904,0.1069,0.1292,0.1363,0.1548,0.136,0.1126,0.0944,0.0577,0.0568,0.0433,0.0381,0.035,0.0276,0.0473,0.0564,0.0564,0.0564,0.0564,0.0564,0,0.0307,0.0365,0.0454,0.0573,0.0677,0.0714,0.0874,0.0993,0.1224,0.1455,0.1656,0.1675,0.145,0.1141,0.0664,0.0424,0.0303,0.0294,0.0209,0.0178,0.0371,0.0334,0.037,0.037,0.037,0.037,0.037,0.037,0.0333,0.0421,0.0471,0.0642,0.073,0.0878,0.0979,0.1186,0.1375,0.1677,0.181,0.1893,0.1643,0.0884,0.0379,0.0255,0.0075,0.0054,-0.0021,0.0075,0.0083,0.009,0.004,0.0014,0.0013,-0.0206,-0.0208,-0.021]}],[{"header":{"parameterUnit":"m.s-1","parameterCategory":2,"la1":30.2991,"la2":30.254,"lo1":-89.0895,"lo2":-89.0444,"dy":0.0017,"dx":0.0017,"nx":28,"ny":28,"refTime":"2026-01-05T09:00:00:Z","depth":"2","parameterNumber":2,"parameterNumberName":"U-component_of_CURRENTS"},"data":[0,0,0,0,0,0,0,0,0,0,0,0,0,0,0,0,0,0,0,0,0,0,0,0,0,0,0,0,0,0,0,0,0,0,0,0,0,0,0,0,0,0,0,0,0,0,0,0,0,0,0,0,0,0,0,0,0,0,0.2262,0.2262,0,0.2247,0.2246,0.2246,0.2236,0.2236,0.2236,0.2236,0.2234,0.2234,0.2234,0,0,0,0,0,0,0,0,0,0,0,0,0,0.2263,0.2263,0.2262,0.2262,0.2262,0.2247,0.2246,0.2246,0.2236,0.2236,0.2236,0.2236,0.2234,0.2234,0.2234,0,0,0,0,0,0,0,0,0,0,0,0,0,0.2256,0.2264,0.2262,0.2255,0.2255,0.2247,0.2246,0.2246,0.2236,0.2236,0.2236,0.2236,0.2234,0.2234,0.2234,0.2234,0,0,0.2234,0.2234,0,0,0,0,0,0,0,0,0.2257,0.2256,0.2256,0.2256,0.2255,0.2244,0.2246,0.2243,0.2236,0.2242,0.2236,0.2236,0.2239,0.2239,0.2234,0.2234,0.2233,0.2234,0.2234,0.2234,0.2234,0,0,0,0,0,0,0,0.2257,0.2256,0.2255,0.2256,0.2256,0.2247,0.2246,0.2245,0.224,0.2241,0.2241,0.224,0.2239,0.2234,0.2234,0.2233,0.2234,0.2234,0.2234,0.2234,0.2274,0.2275,0,0,0,0,0,0,0.2262,0.2257,0.2256,0.2255,0.2257,0.2247,0.2246,0.2247,0.224,0.2239,0.224,0.224,0.2235,0.2234,0.2234,0.2281,0.2234,0.2234,0.2234,0.2273,0.2274,0.2275,0,0,0,0,0,0,0.2262,0.2262,0.2256,0.2256,0.2255,0.2247,0.2248,0.2246,0.226,0.2239,0.2238,0.2257,0.2235,0.2234,0.2248,0.2279,0.2234,0.2234,0.2271,0.2273,0.2274,0.2343,0,0,0,0,0,0,0.2262,0.2262,0.227,0.2257,0.2255,0.2266,0.2248,0.2246,0.2259,0.2258,0.2253,0.2252,0.2234,0.2249,0.2248,0.2278,0.2234,0.227,0.2272,0.2274,0.234,0.2347,0.2353,0,0,0,0,0,0.2262,0.2259,0.227,0.2271,0.2264,0.2267,0.2266,0.2259,0.226,0.2271,0.2266,0.2253,0.2261,0.2249,0.2249,0.2279,0.2269,0.2271,0.2274,0.2336,0.2345,0.2353,0,0,0,0,0,0,0.2258,0.2258,0.227,0.2267,0.228,0.2266,0.2267,0.2274,0.2279,0.2279,0.2265,0.2264,0.2288,0.2273,0.2261,0.2296,0.2264,0.2267,0.2312,0.232,0.2327,0.2317,0.2234,0,0,0,0,0,0.2265,0.2268,0.2274,0.2278,0.2283,0.2285,0.2288,0.229,0.2288,0.2291,0.2287,0.2286,0.2295,0.23,0.2298,0.2318,0.2318,0.2337,0.2344,0.235,0.2341,0.2379,0.2389,0.2283,0.2283,0.2283,0,0,0.2268,0.2266,0.227,0.2279,0.2282,0.229,0.2286,0.2295,0.2308,0.229,0.2304,0.2311,0.2305,0.2326,0.2336,0.232,0.2384,0.2353,0.2358,0.2346,0.2383,0.2393,0.2402,0.2285,0.2285,0.2284,0,0,0.2262,0.2273,0.2274,0.2285,0.2298,0.2301,0.2313,0.2318,0.2328,0.2343,0.2342,0.2362,0.2364,0.2371,0.2374,0.2418,0.242,0.243,0.2458,0.2496,0.2505,0.2513,0.2544,0.2554,0.2434,0.2434,0.2434,0,0.2269,0.2267,0.2277,0.2281,0.229,0.2311,0.2321,0.2335,0.2347,0.2364,0.2352,0.2386,0.2379,0.2423,0.2435,0.2433,0.2458,0.2429,0.2506,0.2514,0.2521,0.255,0.256,0.2438,0.2437,0.2437,0.2437,0,0.226,0.227,0.2269,0.2286,0.2301,0.2311,0.2335,0.2361,0.2375,0.2389,0.2436,0.2435,0.2457,0.2469,0.2459,0.2521,0.2524,0.2513,0.2487,0.2536,0.2563,0.2573,0.2443,0.2442,0.244,0.244,0,0,0.2247,0.2262,0.2263,0.2276,0.2305,0.2313,0.235,0.2388,0.2421,0.2442,0.2484,0.2504,0.2522,0.2527,0.2542,0.2569,0.2639,0.2567,0.2567,0.2599,0.2735,0.2644,0.2645,0.2658,0.2659,0.2661,0.2741,0,0.2242,0.2245,0.2257,0.2277,0.2287,0.2325,0.2355,0.2398,0.2437,0.2483,0.2516,0.2554,0.2544,0.257,0.2601,0.2632,0.2665,0.2618,0.2679,0.268,0.2595,0.2652,0.2417,0.246,0.275,0.2752,0.2753,0,0.2227,0.2232,0.2244,0.2278,0.2286,0.2306,0.2371,0.2406,0.2486,0.2519,0.2579,0.2607,0.2668,0.2641,0.2723,0.2704,0.2721,0.2735,0.2738,0.2628,0.2605,0.2454,0.2466,0.2768,0.2767,0.2766,0.2765,0,0.2201,0.2223,0.2231,0.2241,0.2283,0.2308,0.2344,0.242,0.2463,0.2561,0.2605,0.2675,0.2721,0.276,0.2788,0.2772,0.2867,0.2844,0.2779,0.2774,0.2566,0.2539,0.2893,0.2893,0.2892,0.2892,0.2892,0,0.218,0.2188,0.2221,0.2224,0.225,0.2295,0.2349,0.2402,0.249,0.2552,0.2631,0.2686,0.2755,0.2814,0.2825,0.2834,0.2902,0.2788,0.2789,0.2584,0.2558,0.2809,0.2798,0.2895,0.2894,0.2894,0.2893,0,0.2144,0.2165,0.2178,0.2219,0.2237,0.2261,0.2343,0.2383,0.2484,0.2574,0.261,0.2716,0.2788,0.2844,0.2909,0.2874,0.2891,0.2875,0.2627,0.2595,0.2764,0.2756,0.2809,0.2806,0.2804,0.2802,0.2801,0,0.2119,0.2123,0.2162,0.2174,0.2193,0.2242,0.2273,0.2369,0.2421,0.2581,0.2612,0.2721,0.2757,0.2823,0.2787,0.2793,0.2867,0.2572,0.2472,0.2761,0.2757,0.2752,0.2747,0.2241,0.2235,0.223,0.2226,0,0.208,0.2099,0.2109,0.2133,0.2161,0.2188,0.2249,0.2275,0.2401,0.2463,0.2538,0.258,0.2656,0.2534,0.2552,0.2521,0.2546,0.247,0.2854,0.2289,0.2229,0.2224,0.2237,0.2183,0.2187,0.219,0.2193,0.2194,0.205,0.2046,0.2068,0.2086,0.2115,0.2118,0.2102,0.2158,0.2193,0.2252,0.2377,0.2364,0.2386,0.2268,0.219,0.2128,0.2308,0.2189,0.2203,0.2222,0.2133,0.207,0.1979,0.1982,0.1984,0.1987,0.1989,0,0.2005,0.2007,0.2019,0.2019,0.2001,0.2055,0.2066,0.2013,0.1985,0.2066,0.2096,0.1926,0.1838,0.187,0.1696,0.1677,0.165,0.1605,0.1551,0.1596,0.1636,0.1514,0.1198,0.1195,0.1193,0.119,0,0,0.1977,0.1963,0.1965,0.191,0.1907,0.1829,0.1803,0.1744,0.1746,0.1681,0.1657,0.1797,0.1835,0.1515,0.1452,0.1295,0.144,0.1237,0.1875,0.1859,0.1896,0.1978,0.1842,0,0,0,0,0]},{"header":{"parameterUnit":"m.s-1","parameterCategory":2,"la1":30.2991,"la2":30.254,"lo1":-89.0895,"lo2":-89.0444,"dy":0.0017,"dx":0.0017,"nx":28,"ny":28,"refTime":"2026-01-05T09:00:00:Z","depth":"2","parameterNumber":3,"parameterNumberName":"V-component_of_CURRENTS"},"data":[0,0,0,0,0,0,0,0,0,0,0,0,0,0,0,0,0,0,0,0,0,0,0,0,0,0,0,0,0,0,0,0,0,0,0,0,0,0,0,0,0,0,0,0,0,0,0,0,0,0,0,0,0,0,0,0,0,0,0.0331,0.0331,0,0.0321,0.0321,0.032,0.0315,0.0315,0.0315,0.0316,0.0299,0.0299,0.0298,0,0,0,0,0,0,0,0,0,0,0,0,0,0.0295,0.0296,0.0331,0.0331,0.0331,0.0321,0.0321,0.032,0.0315,0.0315,0.0315,0.0316,0.0299,0.0299,0.0298,0,0,0,0,0,0,0,0,0,0,0,0,0,0.0299,0.0296,0.0331,0.0328,0.0328,0.0321,0.0321,0.032,0.0315,0.0315,0.0315,0.0316,0.0299,0.0299,0.0298,0.0289,0,0,0.0295,0.0295,0,0,0,0,0,0,0,0,0.0299,0.03,0.0329,0.0328,0.0328,0.0321,0.0302,0.031,0.0315,0.0318,0.0316,0.0316,0.0307,0.0305,0.0301,0.0288,0.0287,0.0295,0.0295,0.0294,0.0294,0,0,0,0,0,0,0,0.0299,0.03,0.0325,0.0329,0.0328,0.0311,0.0312,0.0303,0.031,0.0318,0.0318,0.0319,0.0306,0.0302,0.03,0.0287,0.0295,0.0294,0.0294,0.0294,0.0276,0.0276,0,0,0,0,0,0,0.0306,0.0301,0.0326,0.0325,0.0316,0.0311,0.0312,0.0322,0.031,0.0309,0.0319,0.0319,0.0303,0.0301,0.03,0.0307,0.0294,0.0294,0.0293,0.0276,0.0276,0.0276,0,0,0,0,0,0,0.0305,0.0309,0.0326,0.0313,0.0314,0.0312,0.0322,0.0321,0.0318,0.0312,0.031,0.0317,0.0303,0.0301,0.0298,0.0305,0.0293,0.0292,0.0276,0.0276,0.0276,0.0309,0,0,0,0,0,0,0.0304,0.0309,0.0314,0.0314,0.0316,0.0327,0.0322,0.0321,0.032,0.0319,0.031,0.0308,0.0303,0.0299,0.0297,0.0304,0.0292,0.0276,0.0276,0.0276,0.0308,0.031,0.0312,0,0,0,0,0,0.0303,0.0315,0.0314,0.0317,0.0325,0.0327,0.0326,0.0323,0.0319,0.032,0.0315,0.0309,0.0298,0.0299,0.0296,0.0303,0.0276,0.0276,0.0276,0.0307,0.031,0.0312,0,0,0,0,0,0,0.0301,0.0315,0.0315,0.033,0.0329,0.0327,0.0329,0.0323,0.0319,0.0318,0.0309,0.0308,0.0308,0.0298,0.0299,0.0297,0.0286,0.0285,0.031,0.0312,0.0314,0.0333,0.0291,0,0,0,0,0,0.0303,0.0317,0.0322,0.0332,0.0335,0.033,0.0329,0.0326,0.0324,0.0322,0.0318,0.031,0.0305,0.0304,0.0297,0.0295,0.0284,0.0297,0.0299,0.0301,0.0314,0.0298,0.0301,0.0277,0.0277,0.0277,0,0,0.0303,0.0314,0.032,0.0332,0.0332,0.0344,0.033,0.0332,0.0342,0.0321,0.0332,0.0318,0.0306,0.0308,0.0307,0.0301,0.03,0.0301,0.0303,0.0315,0.0299,0.0301,0.0303,0.0277,0.0277,0.0277,0,0,0.0316,0.0323,0.0339,0.0344,0.035,0.035,0.0352,0.0352,0.0353,0.0357,0.0345,0.0339,0.033,0.0327,0.0323,0.0332,0.0311,0.0323,0.035,0.0335,0.0337,0.0339,0.032,0.032,0.0324,0.0324,0.0324,0,0.0313,0.0341,0.0341,0.0359,0.0371,0.0357,0.0376,0.0374,0.0372,0.0379,0.0367,0.0359,0.0345,0.0352,0.0353,0.0339,0.0322,0.0343,0.0339,0.034,0.0342,0.0321,0.0321,0.0326,0.0326,0.0326,0.0325,0,0.0341,0.0361,0.0372,0.0396,0.0404,0.0417,0.0421,0.0425,0.0423,0.0422,0.0426,0.0404,0.0401,0.039,0.0374,0.0375,0.0357,0.0343,0.0335,0.0346,0.0324,0.0323,0.0328,0.0328,0.0327,0.0327,0,0,0.0345,0.0385,0.0389,0.0414,0.0428,0.0443,0.0459,0.0478,0.0499,0.0481,0.0507,0.0482,0.0463,0.0457,0.043,0.0414,0.0399,0.0383,0.0381,0.0369,0.0359,0.0331,0.0327,0.038,0.038,0.038,0.0337,0,0.0368,0.0416,0.0428,0.0474,0.0501,0.0503,0.0527,0.0538,0.0541,0.0559,0.0531,0.0541,0.049,0.049,0.0463,0.0423,0.0399,0.0412,0.0346,0.0344,0.0323,0.0326,0.0347,0.0309,0.0336,0.0336,0.0336,0,0.0396,0.0429,0.0478,0.0532,0.0545,0.0567,0.0612,0.0632,0.0644,0.0647,0.0637,0.0614,0.0593,0.0548,0.0478,0.0486,0.0425,0.0386,0.0383,0.0349,0.0315,0.0303,0.0305,0.0333,0.0334,0.0334,0.0334,0,0.0415,0.0467,0.0513,0.0529,0.058,0.0606,0.0635,0.0659,0.0698,0.0705,0.0732,0.0684,0.0682,0.0598,0.0505,0.0491,0.0427,0.0398,0.0314,0.0311,0.0314,0.0311,0.0346,0.0346,0.0346,0.0346,0.0347,0,0.0445,0.0482,0.0528,0.0557,0.062,0.0642,0.0711,0.0727,0.0771,0.0837,0.0781,0.0813,0.0694,0.0641,0.0534,0.0424,0.0444,0.0324,0.0301,0.0324,0.0322,0.0334,0.0333,0.0345,0.0345,0.0345,0.0346,0,0.0462,0.0488,0.0549,0.061,0.0633,0.0681,0.0773,0.083,0.0854,0.0939,0.095,0.0917,0.0845,0.0715,0.059,0.0477,0.0367,0.0319,0.035,0.0331,0.0251,0.0253,0.0223,0.0221,0.022,0.0219,0.0219,0,0.0477,0.0508,0.0588,0.0636,0.0668,0.0744,0.081,0.0864,0.094,0.1012,0.1065,0.1014,0.099,0.0781,0.0583,0.039,0.0364,0.0272,0.0247,0.026,0.024,0.0243,0.0246,0.0259,0.0259,0.0259,0.0259,0,0.0509,0.0534,0.0588,0.0683,0.0758,0.0853,0.0952,0.1025,0.1111,0.117,0.1237,0.1217,0.1028,0.0832,0.0559,0.0428,0.0301,0.0259,0.0277,0.0285,0.029,0.0272,0.0275,0.0256,0.0256,0.0256,0.0257,0.0257,0.0534,0.0575,0.0648,0.074,0.0831,0.0956,0.1046,0.1152,0.1265,0.1361,0.1348,0.1306,0.1098,0.0734,0.0516,0.0278,0.0288,0.0196,0.0199,0.0202,0.0211,0.0214,0.0167,0.0167,0.0167,0.0167,0.0167,0,0.057,0.0622,0.0706,0.0824,0.093,0.0977,0.1141,0.1226,0.1356,0.1411,0.1441,0.122,0.1008,0.0761,0.0416,0.021,0.0199,0.0136,0.0177,0.0181,0.0185,0.0194,0.0145,0.0144,0.0143,0.0143,0,0,0.0591,0.0671,0.0715,0.0884,0.0976,0.1127,0.1224,0.1327,0.1393,0.1425,0.1389,0.1344,0.1061,0.0803,0.0538,0.0343,0.0304,0.0296,0.0338,0.0423,0.0428,0.0243,0.0266,0,0,0,0,0]}],[{"header":{"parameterUnit":"m.s-1","parameterCategory":2,"la1":30.2991,"la2":30.254,"lo1":-89.0895,"lo2":-89.0444,"dy":0.0017,"dx":0.0017,"nx":28,"ny":28,"refTime":"2026-01-05T09:00:00:Z","depth":"4","parameterNumber":2,"parameterNumberName":"U-component_of_CURRENTS"},"data":[0,0,0,0,0,0,0,0,0,0,0,0,0,0,0,0,0,0,0,0,0,0,0,0,0,0,0,0,0,0,0,0,0,0,0,0,0,0,0,0,0,0,0,0,0,0,0,0,0,0,0,0,0,0,0,0,0,0,0.1316,0.1317,0,0.1353,0.1353,0.1354,0.1389,0.1389,0.139,0.139,0.1424,0.1425,0.1425,0,0,0,0,0,0,0,0,0,0,0,0,0,0.1273,0.1274,0.1316,0.1317,0.1317,0.1353,0.1353,0.1354,0.1388,0.1389,0.139,0.1391,0.1424,0.1425,0.1425,0,0,0,0,0,0,0,0,0,0,0,0,0,0.1297,0.1274,0.1316,0.134,0.1343,0.1353,0.1353,0.1354,0.1388,0.1389,0.139,0.1391,0.1424,0.1425,0.1425,0.141,0,0,0.1427,0.1427,0,0,0,0,0,0,0,0,0.1296,0.1299,0.1336,0.1339,0.1342,0.1369,0.1351,0.1373,0.1388,0.1369,0.139,0.1391,0.1406,0.1408,0.141,0.1412,0.1413,0.1427,0.1427,0.1427,0.1427,0,0,0,0,0,0,0,0.1294,0.1297,0.1329,0.1337,0.134,0.1349,0.1353,0.1355,0.1381,0.1371,0.1374,0.1381,0.1407,0.141,0.1411,0.1414,0.1427,0.1427,0.1427,0.1428,0.1488,0.149,0,0,0,0,0,0,0.1292,0.1296,0.1328,0.133,0.1323,0.1349,0.1354,0.1358,0.1381,0.1386,0.138,0.1382,0.1408,0.1411,0.1413,0.1466,0.1427,0.1428,0.1428,0.1487,0.1489,0.149,0,0,0,0,0,0,0.1291,0.1295,0.1326,0.1315,0.132,0.1349,0.1353,0.1358,0.139,0.1388,0.1393,0.141,0.1409,0.1412,0.1442,0.1465,0.1428,0.1428,0.1486,0.1488,0.1489,0.1527,0,0,0,0,0,0,0.129,0.1294,0.1312,0.1315,0.1321,0.1346,0.1353,0.1358,0.1391,0.1396,0.1415,0.1417,0.141,0.1441,0.1442,0.1465,0.1429,0.1484,0.1486,0.1489,0.1524,0.153,0.1535,0,0,0,0,0,0.1288,0.1299,0.1312,0.1317,0.1339,0.1346,0.135,0.1372,0.1392,0.1405,0.1426,0.1418,0.1458,0.1442,0.1443,0.1467,0.1483,0.1486,0.1489,0.1521,0.1529,0.1535,0,0,0,0,0,0,0.1292,0.1304,0.1319,0.1335,0.1349,0.1353,0.1374,0.1388,0.1414,0.1431,0.1431,0.1434,0.1471,0.1465,0.1448,0.1493,0.147,0.1474,0.1495,0.1502,0.1507,0.1519,0.1429,0,0,0,0,0,0.13,0.1314,0.1325,0.1342,0.1353,0.1371,0.1385,0.1399,0.1416,0.143,0.1444,0.1462,0.1478,0.1488,0.1499,0.1519,0.1526,0.1537,0.1542,0.1547,0.1558,0.1598,0.1608,0.15,0.15,0.15,0,0,0.1308,0.1317,0.1327,0.1345,0.1362,0.1377,0.1382,0.141,0.1429,0.1428,0.1471,0.1485,0.149,0.1516,0.1532,0.1517,0.158,0.155,0.1554,0.1564,0.1602,0.1612,0.1622,0.1502,0.1501,0.1501,0,0,0.1315,0.1339,0.1351,0.1366,0.1394,0.1401,0.1416,0.1438,0.1461,0.1495,0.1504,0.1536,0.1557,0.1564,0.157,0.1613,0.1611,0.162,0.1652,0.1689,0.1699,0.1707,0.172,0.1729,0.1618,0.1618,0.1618,0,0.133,0.1342,0.1357,0.1372,0.1389,0.1416,0.1433,0.1455,0.1486,0.1509,0.1518,0.1576,0.1579,0.1612,0.1629,0.1625,0.1642,0.1623,0.1697,0.1705,0.1713,0.1725,0.1734,0.162,0.162,0.1619,0.1619,0,0.1335,0.136,0.137,0.1397,0.1416,0.1437,0.1463,0.1497,0.1533,0.1555,0.1613,0.1627,0.1662,0.1667,0.1662,0.1717,0.171,0.1701,0.1678,0.1726,0.1735,0.1744,0.1623,0.1622,0.1622,0.1621,0,0,0.1326,0.1366,0.1375,0.1392,0.1433,0.1443,0.1489,0.1527,0.1567,0.1613,0.1663,0.1698,0.1725,0.1734,0.1737,0.1767,0.1828,0.1763,0.1764,0.1773,0.1906,0.1766,0.1762,0.184,0.1842,0.1843,0.1886,0,0.1331,0.1358,0.1378,0.1413,0.1429,0.1471,0.1505,0.1551,0.1598,0.1653,0.1695,0.1745,0.1743,0.1772,0.1806,0.1829,0.1857,0.1816,0.1862,0.1863,0.173,0.177,0.185,0.1893,0.1895,0.1897,0.1898,0,0.1325,0.1345,0.1378,0.1421,0.1435,0.1465,0.1532,0.1566,0.1647,0.169,0.1758,0.1795,0.1858,0.1847,0.1922,0.1902,0.1914,0.1923,0.1925,0.179,0.174,0.1839,0.1915,0.1913,0.1912,0.1911,0.191,0,0.1296,0.1342,0.1369,0.1385,0.144,0.1475,0.1513,0.1588,0.1627,0.1727,0.1779,0.1853,0.191,0.1947,0.1978,0.1965,0.2047,0.2024,0.1906,0.1896,0.1992,0.1983,0.2077,0.2077,0.2077,0.2077,0.2077,0,0.1273,0.1298,0.1365,0.1378,0.1419,0.1467,0.1525,0.1578,0.1663,0.1712,0.1804,0.1854,0.1946,0.1999,0.2006,0.1982,0.2074,0.1919,0.1902,0.2005,0.1997,0.1998,0.1988,0.2078,0.2078,0.2078,0.2077,0,0.1228,0.1274,0.1307,0.1378,0.1406,0.1437,0.1523,0.1556,0.1657,0.1729,0.1768,0.1886,0.1951,0.2008,0.207,0.2007,0.2,0.1967,0.2072,0.206,0.1814,0.1806,0.1833,0.1829,0.1825,0.1822,0.1819,0,0.1199,0.1216,0.1299,0.1319,0.1357,0.1415,0.1449,0.1545,0.1578,0.1725,0.1744,0.1862,0.1922,0.1901,0.1965,0.1961,0.1937,0.1912,0.186,0.1811,0.1793,0.1791,0.1788,0.1813,0.1812,0.1811,0.181,0,0.1143,0.119,0.1217,0.1266,0.1308,0.1339,0.1398,0.1414,0.152,0.1636,0.1684,0.1719,0.1786,0.182,0.1835,0.1827,0.1914,0.1872,0.1879,0.183,0.1787,0.1772,0.1774,0.1797,0.1799,0.18,0.1801,0,0.1106,0.1111,0.1161,0.1189,0.1237,0.1238,0.1282,0.1318,0.1367,0.1524,0.1538,0.166,0.1774,0.175,0.1761,0.1745,0.171,0.1638,0.1657,0.1672,0.1596,0.1516,0.1434,0,0,0,0,0,0.1059,0.1053,0.1073,0.1088,0.113,0.1159,0.123,0.1275,0.1388,0.138,0.1453,0.1504,0.1537,0.1597,0.1545,0.1673,0.1708,0.1602,0.1632,0.1724,0.1739,0.1662,0,0,0,0,0,0,0.1025,0.1045,0.1041,0.0998,0.0992,0.1021,0.1064,0.1141,0.1138,0.127,0.13,0.1401,0.1458,0.1555,0.1517,0.153,0.1512,0.1675,0.167,0.1715,0.1729,0.1741,0.1668,0,0,0,0,0]},{"header":{"parameterUnit":"m.s-1","parameterCategory":2,"la1":30.2991,"la2":30.254,"lo1":-89.0895,"lo2":-89.0444,"dy":0.0017,"dx":0.0017,"nx":28,"ny":28,"refTime":"2026-01-05T09:00:00:Z","depth":"4","parameterNumber":3,"parameterNumberName":"V-component_of_CURRENTS"},"data":[0,0,0,0,0,0,0,0,0,0,0,0,0,0,0,0,0,0,0,0,0,0,0,0,0,0,0,0,0,0,0,0,0,0,0,0,0,0,0,0,0,0,0,0,0,0,0,0,0,0,0,0,0,0,0,0,0,0,0.0311,0.0311,0,0.0312,0.0312,0.0312,0.0317,0.0318,0.0318,0.0318,0.033,0.033,0.033,0,0,0,0,0,0,0,0,0,0,0,0,0,0.0278,0.0279,0.0311,0.0311,0.0311,0.0312,0.0312,0.0312,0.0317,0.0318,0.0318,0.0318,0.033,0.033,0.033,0,0,0,0,0,0,0,0,0,0,0,0,0,0.0286,0.0279,0.0311,0.0315,0.0315,0.0312,0.0312,0.0312,0.0317,0.0318,0.0318,0.0318,0.033,0.033,0.033,0.0325,0,0,0.0331,0.0331,0,0,0,0,0,0,0,0,0.0286,0.0287,0.0314,0.0315,0.0315,0.0316,0.0305,0.0317,0.0317,0.0316,0.0318,0.0318,0.0327,0.0327,0.0325,0.0326,0.0326,0.0331,0.0331,0.0331,0.0331,0,0,0,0,0,0,0,0.0285,0.0287,0.0311,0.0314,0.0315,0.0304,0.0306,0.0307,0.0319,0.0316,0.0316,0.0318,0.0327,0.0325,0.0326,0.0326,0.0331,0.0331,0.0331,0.0331,0.0345,0.0345,0,0,0,0,0,0,0.0289,0.0287,0.0311,0.0311,0.0302,0.0305,0.0306,0.0314,0.0319,0.032,0.0317,0.0318,0.0325,0.0325,0.0326,0.0347,0.0331,0.0331,0.0331,0.0344,0.0345,0.0345,0,0,0,0,0,0,0.0288,0.0291,0.0311,0.0299,0.0301,0.0305,0.0314,0.0314,0.0319,0.032,0.0321,0.0323,0.0325,0.0326,0.0336,0.0346,0.0331,0.0332,0.0344,0.0345,0.0345,0.0371,0,0,0,0,0,0,0.0287,0.0291,0.0298,0.03,0.0302,0.0316,0.0314,0.0314,0.0319,0.032,0.0325,0.0326,0.0325,0.0335,0.0336,0.0346,0.0332,0.0344,0.0344,0.0345,0.0369,0.0372,0.0374,0,0,0,0,0,0.0286,0.0296,0.0299,0.0301,0.0312,0.0316,0.0316,0.0319,0.0319,0.0324,0.0328,0.0326,0.0338,0.0336,0.0336,0.0347,0.0344,0.0344,0.0345,0.0368,0.0371,0.0374,0,0,0,0,0,0,0.0284,0.0297,0.03,0.0314,0.0318,0.0318,0.0323,0.0322,0.0327,0.033,0.033,0.0331,0.0343,0.034,0.0337,0.0351,0.034,0.0341,0.0358,0.0361,0.0363,0.0367,0.0332,0,0,0,0,0,0.0288,0.03,0.0306,0.0317,0.0321,0.0322,0.0324,0.0326,0.033,0.0332,0.0337,0.034,0.0344,0.0349,0.0351,0.0359,0.0338,0.0365,0.0367,0.0369,0.0372,0.0347,0.0347,0.0347,0.0347,0.0347,0,0,0.029,0.0298,0.0306,0.0317,0.0321,0.0332,0.0324,0.0331,0.0342,0.0333,0.0352,0.0349,0.0347,0.0359,0.0363,0.0359,0.0356,0.037,0.0372,0.0373,0.0347,0.0347,0.0347,0.0347,0.0347,0.0347,0,0,0.0299,0.0309,0.0322,0.0329,0.0337,0.034,0.0344,0.0349,0.0355,0.0367,0.0364,0.0367,0.0377,0.0377,0.0377,0.0391,0.0368,0.0393,0.0409,0.0385,0.0384,0.0384,0.0348,0.0344,0.0395,0.0395,0.0395,0,0.0299,0.0321,0.0324,0.0338,0.0349,0.0346,0.0362,0.0366,0.0374,0.0383,0.0379,0.0387,0.0385,0.0395,0.0401,0.0397,0.0374,0.0401,0.0387,0.0386,0.0385,0.0349,0.0344,0.0396,0.0396,0.0396,0.0396,0,0.0317,0.0336,0.0344,0.0365,0.0375,0.0388,0.0396,0.0407,0.0413,0.0416,0.0427,0.0419,0.0424,0.0422,0.0417,0.0414,0.0396,0.0392,0.038,0.0387,0.0348,0.0342,0.0398,0.0398,0.0397,0.0397,0,0,0.0316,0.0351,0.0355,0.0376,0.0393,0.0406,0.0425,0.0444,0.0461,0.0459,0.0475,0.0472,0.0463,0.0463,0.0452,0.043,0.04,0.0411,0.0409,0.0375,0.0334,0.0308,0.03,0.0392,0.0391,0.0391,0.0306,0,0.033,0.0365,0.0379,0.0417,0.0438,0.0449,0.0471,0.0486,0.0494,0.0508,0.0491,0.0502,0.048,0.0483,0.0458,0.0421,0.0389,0.0423,0.0333,0.033,0.0307,0.0294,0.0389,0.0302,0.0301,0.03,0.0299,0,0.0344,0.037,0.041,0.0456,0.0468,0.049,0.053,0.055,0.0561,0.0566,0.0561,0.0546,0.0524,0.0501,0.0427,0.0449,0.0393,0.0354,0.035,0.0315,0.0296,0.0296,0.0289,0.029,0.0291,0.0291,0.0292,0,0.0349,0.0394,0.0431,0.0446,0.0493,0.0518,0.0546,0.0569,0.0599,0.0603,0.0617,0.0579,0.057,0.0496,0.0414,0.042,0.0319,0.0316,0.0234,0.0231,0.0269,0.027,0.0251,0.0251,0.0251,0.0251,0.0252,0,0.0361,0.0393,0.044,0.0463,0.0517,0.0541,0.0598,0.0614,0.0647,0.0684,0.0651,0.0655,0.0569,0.0503,0.0418,0.0306,0.0317,0.023,0.0208,0.028,0.0284,0.0264,0.0266,0.0248,0.0249,0.025,0.025,0,0.0363,0.0392,0.0442,0.0499,0.0523,0.0563,0.0643,0.0683,0.0704,0.0748,0.0752,0.0713,0.0625,0.0519,0.0394,0.0319,0.021,0.0164,0.0238,0.0222,0.0136,0.0141,0.0067,0.0065,0.0064,0.0063,0.0062,0,0.0367,0.0392,0.0467,0.0507,0.054,0.0607,0.066,0.0709,0.0753,0.0781,0.08,0.0731,0.0687,0.0487,0.0371,0.0189,0.0165,0.0102,0.0126,0.0131,0.0117,0.0124,0.0131,0.006,0.0059,0.0059,0.0058,0,0.0376,0.0404,0.0448,0.0529,0.0594,0.0669,0.0744,0.0777,0.0833,0.0851,0.0832,0.0737,0.0632,0.0481,0.0334,0.0208,0.0142,0.0087,0.009,0.0112,0.0122,0.011,0.0118,0.0054,0.0054,0.0055,0.0055,0,0.0385,0.0414,0.0477,0.055,0.0631,0.0709,0.075,0.0802,0.0843,0.0868,0.0854,0.0747,0.0689,0.0489,0.0356,0.0225,0.0197,0.0157,0.0155,0.0158,0.0211,0.0238,0.0182,0,0,0,0,0,0.0391,0.0429,0.0495,0.0578,0.0661,0.0712,0.0799,0.0835,0.088,0.0871,0.0866,0.0766,0.0576,0.0494,0.0357,0.0325,0.0168,0.0159,0.012,0.0028,0.0033,0.0077,0,0,0,0,0,0,0.0396,0.0454,0.0489,0.059,0.065,0.0746,0.0803,0.0837,0.0831,0.0849,0.0748,0.0719,0.053,0.0648,0.0348,0.031,0.0264,0.0077,0.0074,0.0025,0.003,0.0034,0.0081,0,0,0,0,0]}]]